Tracking 31027 objects as of 19-Jul-2025
HD Live streaming from Space Station
objects crossing your sky now

DELTA 1 DEB

Track DELTA 1 DEB now!
10-day predictions


NORAD ID: 25270
Int'l Code: 1968-055E
Perigee: 715.8 km
Apogee: 4,705.3 km
Inclination: 120.6 °
Period: 143.5 minutes
Semi major axis: 9081 km
RCS: 0.0071 m2 (small)
Launch date: July 4, 1968
Source: United States (US)
Launch site: AIR FORCE WESTERN TEST RANGE (AFWTR)

Note: This is SATELLITE DEBRIS
Your satellite tracking list
STARLINK-3957
Track 1 satellite(s)




NASA's NSSDC Master Catalog

Two Line Element Set (TLE):
1 25270U 68055E   25195.71289276  .00002188  00000-0  47504-2 0  9995
2 25270 120.6197 193.8392 2196476 160.0563 210.1758 10.03140064411026
Source of the keplerian elements: AFSPC